COSMOS 1375 DEB

Satellite information

Favourite Embed

Satellite Type and Status

DEBRISIN ORBIT

Key statistics

Satellite COSMOS 1375 DEB at a glance.

Uptime

15737

Days in orbit

Revolutions

≈ 13.8

Per day

Orbit

LEO

Low Earth Orbit

Inclination

65.8

Latest

Satellite identification and parameters

Extended collection of information and parameters for COSMOS 1375 DEB.

Object identification

Identified? True

Debris? True

Object name: COSMOS 1375 DEB

International designator: 1982-055AV

Object number (NORAD): 17803

Object ID (CCSDS): 17803

Country: COMMONWEALTH OF INDEPENDENT STATES (CIS)

Current information (Y/N): Y

RCS size: SMALL

Orbital parameters

Period: 104.296 minutes

Inclination: 65.8335 deg

SMA: 7339.577 km

Apoapsis: 988.66 km

Periapsis: 934.223 km

RAAN: 10.7588 deg

Eccentricy: 0.0037084

Argument of periapsis: 24.7447 deg

Mean anomaly: 42.7515 deg

Mean motion: 13.8069025 rev/day

Mean motion (dot): 0.00000112 rev/day2

B* drag term: 0.00018366 1/REarth

Two-line elements (TLE)

Creation date: July 6, 2025, 6:05 p.m.

Reference frame: TEME

Reference center: EARTH

Epoch: July 6, 2025, 1:39 p.m. UTC

TLE line 0: 0 COSMOS 1375 DEB

TLE line 1: 1 17803U 82055AV 25187.56913137 .00000112 00000-0 18366-3 0 9998

TLE line 2: 2 17803 65.8335 10.7588 0037084 24.7447 42.7515 13.80690250996169

Live tracking on map

Real-time ground track for satellite COSMOS 1375 DEB.

In-orbit conjunctions

A list of the most updated potential collisions computed for object COSMOS 1375 DEB.

Target Orbit TCA Probability of collision Miss distance Type
CZ-4C R/B LEO 2025-01-24 17:32:59 0.0001623122 983.0 (m) ROCKET BODY

Associated space launch

ASAT target satellite

COSMOS 1375 DEB was lifted into orbit during the mission ‘Kosmos-3M | DS-P1-M 16’, on board a Kosmos-3M space rocket.

The launch took place on June 6, 1982, 5:10 p.m. from 132/2.

For more information about the launch, click the button.

Launch to space Kosmos-3M | DS-P1-M 16
Kosmos-3M | DS-P1-M 16

Agency: N/A

Status: Launch Successful

Launch date: June 6, 1982, 5:10 p.m. UTC

Rocket: Kosmos-3M

Launch pad: 132/2

Location: Plesetsk Cosmodrome, Russian Federation

...

Latest news about this satellite

There are no fresh news available about this satellite. Check back as we update our databases every day.


Newsletter sign-up

Weekly statistics, charts and insights to help you stay on top of the space industry.